Dewpoint
4 6 5 2 -5 -3 -1 -1 1 1 7 9 7 9 10 9 9 8 12 12 12 12 12 13 14 14 13 12 13 13 13 13 13 13 12 12 12 11 10 10 7 6 10 12 14 14 5 3 6
7 6 4 2 -4 -5 -1 -0 2 0 6 6 6 6 7 7 8 10 11 9 11 12 12 12 13 14 14 12 12 13 13 12 12 12 12 11 11 11 10 10 8 6 8 11 13 14 12 10 6
7 6 3 2 -3 -6 3 2 -1 -2 4 0 5 4 4 4 5 7 4 5 9 13 13 13 13 14 14 13 11 11 12 12 12 12 11 11 10 11 11 12 10 8 6 9 12 13 13 12 11
7 5 2 -1 2 2 2 0 -1 -1 -2 3 4 4 3 3 1 1 -2 -2 9 14 13 13 13 13 13 14 14 13 11 11 11 11 11 11 10 10 10 10 12 8 8 6 12 13 12 11 4
6 3 1 3 3 0 -3 -3 -3 -3 -1 2 2 2 1 -1 -2 -3 -5 -5 -4 9 12 12 12 12 13 13 14 14 13 12 12 11 11 11 10 9 9 9 10 10 9 7 9 12 12 12 10
3 -1 1 4 3 -2 -3 -4 -4 -4 -4 -2 3 2 1 -3 -4 -5 -7 -7 -9 -9 -2 11 11 12 12 12 13 14 13 13 13 12 12 12 11 10 10 10 10 9 9 10 10 8 11 12 12
1 -0 0 2 1 -1 -3 -3 -4 -4 -4 -5 1 2 -1 -4 -5 -6 -7 -8 -9 -10 -13 -9 4 11 11 11 13 13 14 14 13 13 13 13 12 12 11 10 10 10 10 9 10 10 9 9 12
-2 -3 -0 -0 1 1 -3 -3 -4 -5 -5 -6 -2 1 -1 -5 -5 -7 -8 -9 -9 -10 -12 -14 -13 -6 3 11 11 12 13 14 13 13 13 13 13 12 12 11 11 11 11 11 10 9 10 10 10
-5 -2 0 -0 -0 -1 -3 -4 -5 -5 -6 -7 -5 -2 -4 -7 -8 -9 -9 -9 -9 -9 -9 -10 -11 -12 -12 -8 1 10 11 11 12 13 13 13 13 12 12 12 11 11 11 10 10 10 9 10 11
-3 -1 -1 -2 -3 -3 -4 -5 -6 -6 -7 -8 -8 -8 -8 -9 -9 -8 -8 -8 -7 -7 -6 -6 -6 -7 -9 -10 -12 -10 -5 7 11 11 12 12 12 13 12 12 11 11 11 10 10 10 9 9 10
-2 -1 -1 -2 -4 -5 -6 -6 -6 -7 -7 -8 -9 -9 -8 -6 -6 -6 -6 -5 -4 -4 -3 -4 -3 -2 -4 -6 -8 -10 -12 -11 -7 5 10 11 11 11 12 13 12 11 10 10 11 11 9 10 10
-1 -1 -2 -2 -4 -6 -7 -7 -8 -7 -8 -8 -9 -7 -5 -5 -5 -4 -3 -2 -1 -1 1 1 -1 -4 -5 -5 -5 -6 -8 -10 -12 -12 -9 5 10 10 11 11 12 12 13 12 12 12 11 12 12
-1 -2 -3 -6 -7 -7 -8 -8 -9 -10 -8 -8 -9 -5 -4 -4 -3 -2 -1 0 1 1 0 -0 -2 -4 -4 -5 -5 -5 -5 -6 -7 -7 -9 -9 -8 6 9 9 10 11 11 12 13 12 12 12 12
-2 -3 -5 -7 -6 -6 -9 -7 -7 -10 -11 -9 -8 -4 -3 -2 -1 0 1 2 2 1 -1 -3 -4 -4 -4 -4 -4 -4 -4 -5 -5 -4 -4 -6 -6 -7 -5 6 8 9 10 11 12 12 12 12 12
-6 -5 -5 -5 -6 -4 -4 -9 -7 -9 -9 -7 -5 -3 -2 -0 1 2 2 2 2 0 -2 -2 -2 -3 -3 -3 -4 -4 -3 -4 -5 -6 -5 -2 -1 -3 -5 -7 4 8 9 11 12 12 12 11 11
-6 -7 -7 -5 -5 -3 -9 -16 -8 -9 -8 -6 -3 -1 0 2 3 3 3 2 1 -1 -0 -1 -1 -2 -1 -2 -2 -2 -2 -2 -3 -3 -2 -2 1 1 -2 -4 -5 -0 8 9 11 12 11 11 10
-5 -4 -4 -4 -4 -3 -4 -11 -7 -7 -8 -6 -3 0 2 3 3 3 2 2 0 0 0 -0 -1 -0 0 -0 -1 -0 -0 -1 -2 -0 3 2 1 2 -0 -1 -1 2 5 8 10 11 11 11 11
-5 -2 -4 -3 -3 -3 -2 -2 -4 -5 -7 -7 -4 -3 3 3 3 3 2 2 1 1 -0 -0 0 1 1 2 2 2 3 1 2 3 3 3 4 4 5 4 2 3 5 8 9 7 10 11 11
-3 -3 -2 -1 -2 -0 -1 -1 -2 -3 -3 -3 -6 -5 0 3 3 3 2 2 1 0 0 0 2 2 2 2 2 2 3 5 5 3 4 3 5 5 5 5 7 7 8 8 9 8 9 10 10
-3 -2 1 1 -0 1 1 1 -1 -1 -1 -2 -3 -4 -2 3 3 3 2 2 1 1 1 1 2 2 2 2 3 3 4 5 5 5 5 5 6 5 5 5 6 7 7 8 8 8 7 8 8
1 -0 1 -1 0 0 -0 -4 -4 1 1 1 0 -0 -1 2 3 3 2 2 1 1 1 1 2 2 2 2 3 3 4 4 4 5 5 5 5 5 4 5 5 4 5 6 6 6 6 6 6
-0 1 2 2 -1 -4 -1 -2 -6 -1 1 2 2 1 2 3 3 2 2 1 1 1 1 1 2 2 1 2 2 2 2 3 3 4 5 5 5 5 5 5 5 6 6 6 6 6 6 7 6
1 1 2 1 2 -0 0 -1 -3 1 1 1 2 2 2 3 3 2 2 1 1 1 1 1 0 0 1 1 0 1 2 1 1 1 1 1 0 0 0 -0 -1 0 2 -0 1 2 4 3 3
0 1 -1 -0 -0 -1 -1 1 0 -0 0 -0 1 1 2 2 3 3 2 1 1 1 2 1 -0 -0 -1 -2 -2 -2 -1 -1 -2 -2 -2 -2 -3 -3 -4 -4 -4 -3 -3 -2 -2 -7 -8 -8 -10
-0 -0 -3 -4 -0 -1 0 3 1 -1 -2 -1 -0 1 2 2 3 2 1 1 1 1 2 2 1 1 -0 -3 -9 -11 -11 -9 -7 -6 -6 -7 -8 -9 -12 -13 -14 -13 -13 -13 -12 -11 -11 -12 -14
2 -0 -3 -10 0 2 1 4 2 -1 1 1 2 2 2 3 2 1 1 0 1 1 1 -3 -5 -3 -6 -11 -14 -15 -14 -14 -14 -14 -14 -14 -14 -15 -17 -20 -23 -25 -27 -28 -28 -28 -28 -28 -28
2 2 0 1 1 4 -0 -1 -2 -1 1 2 2 2 2 2 1 1 1 0 1 2 1 -2 -9 -12 -13 -14 -14 -13 -14 -13 -12 -13 -13 -14 -16 -18 -22 -27 -28 -28 -27 -26 -26 -25 -25 -25 -26
1 1 2 0 1 3 0 0 1 0 2 1 2 2 2 2 1 1 0 0 1 2 2 -1 -10 -12 -13 -13 -12 -12 -11 -11 -11 -12 -13 -15 -17 -21 -27 -29 -30 -30 -29 -28 -26 -24 -23 -23 -23
4 3 2 1 1 2 3 -2 -2 -0 0 -1 -1 -0 0 0 -0 -1 -0 -0 1 2 1 -1 -7 -11 -11 -11 -11 -10 -10 -9 -10 -11 -12 -14 -17 -23 -29 -31 -31 -31 -29 -26 -24 -24 -23 -23 -22
1 2 1 2 1 2 2 2 -4 -1 -1 -1 -1 -2 -2 -2 -1 -1 -0 0 1 1 0 -2 -6 -7 -8 -9 -9 -9 -9 -9 -9 -9 -11 -13 -17 -24 -28 -29 -29 -25 -23 -22 -22 -22 -21 -20 -20
Wind_Speed
15 14 16 7 4 5 2 2 1 2 3 4 5 6 10 8 3 3 7 3 0 2 3 4 6 6 4 4 4 3 3 3 3 3 2 2 1 3 3 3 4 3 3 3 4 3 1 2 1
16 16 10 3 5 3 3 3 3 1 9 12 11 7 7 3 6 7 3 3 1 3 1 3 4 4 5 5 5 4 4 4 4 4 4 4 4 4 4 4 5 5 5 5 6 6 5 2 2
17 14 3 4 4 5 4 3 4 3 9 2 6 9 4 4 6 4 6 6 4 1 4 3 4 1 4 4 5 5 5 5 6 6 6 5 6 6 6 6 7 7 7 8 10 7 7 6 7
10 5 5 4 4 1 4 4 1 4 7 5 12 7 6 4 4 6 6 7 7 3 1 2 5 4 4 5 5 6 7 8 8 8 8 7 7 8 7 8 8 7 8 9 7 10 10 8 8
13 4 4 4 2 1 0 0 1 3 4 5 2 4 5 9 9 6 5 5 6 5 2 1 4 5 6 6 7 8 9 9 10 11 11 10 10 10 10 9 9 8 9 9 9 9 11 10 8
4 3 4 5 3 1 1 2 3 4 4 5 8 6 4 8 6 4 5 6 7 6 4 3 4 6 7 8 8 8 9 11 12 13 13 13 13 13 13 12 11 11 11 11 11 12 14 14 12
5 4 4 6 6 3 2 3 4 5 4 5 7 4 7 7 5 2 3 6 9 9 8 7 7 8 9 12 11 12 12 12 12 12 13 15 15 15 15 14 14 14 13 13 13 14 15 16 16
4 4 4 1 6 5 1 3 6 5 3 7 4 5 5 8 4 1 4 6 9 12 12 9 9 11 10 13 13 14 14 14 14 14 15 15 17 18 18 18 18 17 17 16 15 16 16 17 17
4 4 3 7 7 5 5 4 2 5 7 5 4 6 10 8 2 3 4 7 9 11 11 11 10 9 11 12 13 15 17 17 16 17 16 16 18 19 19 20 20 20 20 19 19 19 19 19 19
4 4 7 2 4 5 6 4 5 4 6 6 11 10 8 3 2 4 6 9 10 10 11 12 13 13 12 12 14 15 16 17 19 20 21 20 20 20 21 22 21 22 22 23 23 23 23 23 22
3 3 5 2 5 10 6 4 4 9 1 4 8 7 4 2 2 4 7 8 9 11 12 14 14 15 15 14 14 14 16 18 19 20 22 24 24 24 23 22 21 22 22 24 25 26 26 25 25
7 5 3 6 5 6 4 6 4 3 3 9 8 5 4 2 3 4 5 7 8 11 13 14 15 16 15 15 15 16 16 16 18 20 22 24 26 26 26 26 25 24 24 25 25 25 26 26 25
5 3 7 9 9 9 7 4 1 3 9 8 5 5 3 2 2 3 6 9 11 11 14 16 18 17 16 16 16 16 17 17 18 19 19 22 25 27 28 29 29 29 27 28 27 24 25 26 28
6 11 7 7 7 6 3 1 3 0 10 11 8 5 3 3 2 3 5 8 11 14 18 19 19 19 19 18 18 19 19 19 19 19 20 21 23 25 28 29 30 32 30 31 30 30 28 27 27
8 6 5 9 5 3 3 2 4 5 9 12 8 6 6 6 4 3 6 9 13 16 17 19 20 19 19 19 19 19 19 19 19 20 20 20 21 23 25 29 30 28 29 31 31 32 29 28 30
5 5 4 4 5 3 2 5 1 9 11 9 7 9 10 8 6 5 7 11 14 16 19 21 21 20 18 18 18 18 18 18 19 20 20 19 19 21 22 24 26 29 30 31 30 29 29 29 28
7 4 3 1 3 3 2 3 2 7 10 11 7 12 13 12 10 8 8 12 14 18 23 23 20 16 15 15 14 12 13 15 15 15 15 15 17 16 18 21 24 24 25 29 28 28 28 27 27
5 6 3 3 2 3 3 7 6 7 10 17 16 8 16 16 13 10 10 12 14 19 22 19 15 12 13 12 12 12 11 9 10 11 10 12 14 15 16 18 21 20 21 21 23 27 28 28 29
7 6 5 0 1 1 5 7 11 19 14 22 25 21 19 20 15 12 10 11 13 18 16 15 12 11 11 10 11 13 15 14 11 11 12 12 13 15 17 17 16 12 14 13 17 19 23 16 23
6 6 3 2 1 1 5 12 12 8 10 19 24 25 23 21 17 13 9 10 12 13 13 13 10 8 9 12 14 13 13 15 14 11 14 15 12 13 14 14 14 13 9 10 12 9 8 9 11
5 5 3 3 3 2 7 8 4 3 4 7 12 16 22 23 18 13 9 9 10 10 12 9 6 6 8 9 11 10 9 8 8 10 10 10 11 10 12 13 12 13 16 14 11 12 13 12 14
3 2 3 4 4 2 4 4 6 3 6 3 6 11 17 19 16 13 10 9 7 7 9 7 5 5 6 6 8 11 12 11 13 13 13 10 11 12 12 15 13 11 10 11 11 11 11 11 12
3 3 4 3 4 3 1 3 7 3 6 7 12 15 18 17 15 12 10 8 8 6 5 3 3 5 7 7 7 7 8 10 10 10 10 10 11 12 12 13 13 12 13 15 11 10 10 11 10
4 5 6 4 3 2 1 3 6 4 5 1 5 19 19 18 15 13 11 9 6 4 2 1 3 5 7 8 8 8 8 8 7 7 8 9 11 12 13 13 12 11 9 8 11 13 13 14 13
6 5 3 4 3 5 2 1 10 6 5 3 4 11 19 18 16 14 12 8 8 5 3 2 2 2 4 4 6 6 6 7 7 8 8 8 9 10 12 13 13 13 12 10 9 10 12 14 14
3 4 4 5 2 4 2 6 6 3 0 4 6 6 12 17 16 15 11 10 11 9 7 3 1 1 2 3 4 4 6 6 6 6 7 10 11 12 13 14 15 15 15 14 13 12 13 13 14
2 0 3 5 2 2 3 7 9 4 6 6 8 9 13 15 14 13 11 12 13 12 10 5 4 4 3 2 3 4 4 5 7 8 9 10 11 12 14 16 17 17 17 17 16 15 14 13 13
2 5 3 2 1 4 5 6 5 3 3 6 9 18 15 13 13 12 13 14 16 16 13 9 7 7 6 5 5 6 6 7 8 9 9 10 11 12 13 15 16 16 16 16 16 15 15 15 15
2 1 3 3 3 3 3 6 6 5 4 6 8 9 10 11 10 11 12 16 18 18 17 13 10 8 8 8 8 8 8 8 9 10 11 12 13 15 17 17 17 16 16 16 16 17 17 17 16
4 5 5 3 3 1 2 7 2 5 5 6 8 7 7 9 10 12 13 17 20 21 19 15 13 11 12 12 11 11 10 10 11 12 13 14 15 16 17 17 16 15 16 16 17 17 17 17 17
Wind_Direction
147 144 143 140 71 66 154 194 242 121 74 47 124 109 111 55 64 158 114 52 60 118 327 331 295 309 289 267 243 252 269 257 241 235 269 302 292 324 319 309 299 286 264 231 237 235 79 67 89
147 145 143 112 90 93 253 264 156 142 144 107 84 78 51 72 76 117 92 19 352 161 186 306 311 308 314 275 257 257 258 255 257 251 264 275 292 301 309 305 294 274 260 256 268 239 236 294 331
150 150 136 95 109 168 169 202 143 82 162 97 110 81 85 90 87 90 62 42 32 149 194 313 332 269 290 306 286 272 266 260 258 259 269 279 284 287 297 297 309 280 263 265 261 261 230 272 284
152 138 70 87 146 214 158 160 146 131 88 84 112 68 82 102 94 109 75 52 39 92 41 272 301 331 293 275 281 283 276 267 266 268 269 270 276 283 290 297 296 294 276 271 270 240 245 269 283
159 134 75 81 114 133 9 11 173 83 86 70 132 127 88 103 112 101 74 51 41 48 79 259 275 270 276 277 272 269 262 267 270 271 274 276 277 277 280 282 281 288 281 273 264 253 251 262 288
122 103 81 152 158 128 5 55 110 87 89 93 97 98 117 135 129 96 56 32 23 4 340 279 269 264 271 275 276 284 276 262 261 269 273 271 269 272 276 277 277 277 278 275 273 262 262 263 268
122 88 144 130 146 149 158 82 88 107 97 51 126 90 138 154 146 88 19 7 351 338 321 289 272 264 259 268 277 283 282 277 271 267 268 269 268 269 269 271 271 272 273 271 270 269 264 265 263
130 94 107 136 172 174 166 98 102 100 90 104 116 148 166 171 165 340 336 330 327 328 326 314 286 272 268 260 262 269 274 279 280 275 271 270 268 270 271 270 270 270 268 267 266 266 264 260 261
125 69 147 173 167 167 155 121 95 96 116 91 104 131 136 149 178 287 290 301 312 317 324 323 313 297 281 273 270 267 262 269 272 275 276 277 274 271 271 271 271 269 269 269 268 266 263 260 258
82 98 181 173 150 149 131 123 132 130 118 91 104 121 137 161 236 276 297 307 318 325 331 331 323 314 305 293 281 276 272 267 263 267 270 271 272 277 273 270 271 272 271 269 268 267 267 262 257
74 150 160 98 121 129 123 106 120 136 144 159 158 144 162 193 276 300 309 322 336 342 335 329 329 328 321 311 301 290 281 276 271 267 264 269 270 271 274 275 274 272 271 271 271 270 268 265 259
96 63 99 132 120 116 101 120 103 157 154 144 141 152 165 223 286 319 334 341 342 339 341 337 332 328 323 321 316 309 300 289 278 272 270 268 262 267 271 273 274 274 278 273 271 271 267 266 266
72 122 74 101 100 89 115 67 29 224 171 156 165 177 209 244 296 329 336 338 334 332 331 330 328 325 325 323 320 317 312 304 298 290 282 277 272 266 261 264 269 271 273 274 272 269 268 267 270
101 100 96 64 70 70 82 63 356 245 204 199 198 197 208 220 238 300 321 322 325 330 328 326 325 321 319 318 318 318 316 311 305 298 291 285 282 280 272 267 262 264 269 271 275 269 268 266 268
92 73 40 25 22 50 43 306 237 159 140 159 177 189 203 213 228 273 307 324 331 332 331 326 323 320 317 316 318 320 318 314 311 307 301 294 288 286 286 278 271 268 264 267 271 270 265 264 266
67 56 93 340 5 3 67 258 220 185 176 174 186 204 212 218 235 271 307 323 329 330 328 328 322 314 308 309 314 318 316 313 313 312 311 309 302 293 295 287 282 277 273 274 270 268 266 263 265
18 142 110 344 6 341 67 264 279 199 200 196 202 218 222 225 235 258 291 313 324 328 327 326 323 318 315 317 322 323 320 319 320 318 325 323 321 314 306 301 293 286 274 269 282 271 271 269 264
169 110 85 141 340 3 315 270 277 233 229 234 226 234 224 228 238 257 283 306 320 325 327 327 325 324 328 331 337 344 350 347 345 342 340 336 331 329 328 318 306 302 291 292 275 274 272 279 264
121 108 116 88 68 23 266 276 271 266 252 247 246 248 230 229 236 250 274 303 326 330 329 327 329 333 340 341 342 349 1 7 6 359 353 339 340 341 343 343 344 332 316 294 302 298 279 298 270
72 97 48 5 51 46 333 285 262 241 243 244 246 242 234 221 228 241 271 303 325 327 331 332 335 341 2 9 10 11 16 24 16 20 22 11 1 3 0 352 358 351 342 316 302 319 337 300 291
45 101 139 156 339 40 336 294 285 227 238 251 242 242 229 219 222 236 260 290 321 326 332 337 348 2 18 20 24 40 35 27 8 22 17 9 3 5 354 348 345 336 329 330 328 319 331 310 313
88 2 95 59 57 237 21 273 290 256 269 234 223 205 200 208 221 235 256 290 312 314 327 336 3 22 28 30 29 36 39 31 33 30 24 359 344 342 353 350 353 346 338 324 324 333 328 320 311
158 71 58 67 77 37 10 71 269 349 280 243 218 212 209 215 226 241 262 285 284 299 323 349 36 35 41 40 45 42 43 38 31 23 15 14 24 23 25 20 16 5 358 353 354 340 319 314 310
119 66 43 51 60 18 328 122 280 213 218 255 215 223 220 221 233 248 268 273 246 268 305 122 77 55 51 48 45 48 45 43 26 20 13 12 7 2 2 1 3 360 353 341 327 330 326 321 324
67 58 356 356 8 225 323 61 249 257 235 225 246 240 227 228 238 253 269 241 215 223 202 154 99 61 52 43 36 31 32 37 28 18 9 5 3 359 356 354 350 346 340 333 321 309 307 307 310
79 131 150 211 225 274 19 234 250 218 76 226 241 243 215 225 239 251 240 223 206 203 186 165 198 254 300 318 352 1 10 11 1 350 348 351 351 350 346 341 338 336 334 331 325 320 314 307 306
165 158 152 102 3 315 251 286 296 232 246 241 236 229 228 232 243 246 236 224 206 205 206 233 253 247 251 279 309 324 325 329 333 336 338 339 341 337 335 335 336 335 335 335 336 336 334 329 322
141 150 74 5 82 275 284 275 243 316 248 226 241 241 249 247 246 244 235 216 204 206 216 229 241 240 246 262 279 287 305 317 320 323 326 325 323 324 326 329 329 329 329 329 328 326 326 325 324
120 171 62 118 140 186 316 274 217 236 228 215 243 253 255 251 251 243 228 208 206 212 219 229 244 247 256 264 269 277 291 298 310 313 313 318 325 330 331 329 326 326 325 323 321 320 320 320 320
164 186 153 133 231 137 127 274 290 271 259 265 270 278 269 264 255 242 232 217 216 218 223 231 242 248 251 254 261 271 277 288 297 306 312 315 320 323 324 323 323 323 321 320 318 316 316 316 317
Height
1504 1506 1508 1511 1523 1529 1535 1529 1526 1524 1526 1525 1525 1526 1530 1534 1537 1546 1542 1542 1542 1543 1543 1542 1542 1542 1542 1542 1542 1543 1544 1543 1543 1544 1544 1545 1544 1545 1545 1544 1544 1544 1544 1544 1545 1545 1545 1544 1544
1504 1507 1510 1510 1530 1539 1538 1527 1524 1524 1525 1526 1526 1529 1531 1539 1538 1541 1542 1542 1541 1542 1542 1541 1541 1542 1542 1542 1542 1543 1543 1543 1543 1544 1544 1544 1544 1544 1544 1544 1544 1544 1544 1544 1545 1544 1545 1545 1544
1505 1507 1510 1517 1535 1535 1534 1525 1523 1524 1525 1526 1528 1531 1534 1539 1540 1541 1542 1541 1541 1541 1541 1541 1541 1541 1541 1542 1542 1542 1542 1543 1543 1543 1544 1544 1544 1544 1544 1544 1544 1543 1543 1543 1543 1544 1544 1544 1544
1506 1509 1513 1523 1526 1525 1524 1523 1523 1524 1525 1526 1528 1533 1537 1539 1540 1541 1542 1541 1541 1541 1542 1542 1541 1541 1542 1541 1541 1542 1542 1542 1542 1543 1543 1543 1543 1543 1544 1543 1543 1542 1542 1542 1542 1543 1543 1543 1543
1506 1507 1521 1528 1527 1525 1523 1522 1523 1523 1526 1527 1528 1535 1538 1540 1540 1541 1541 1541 1541 1541 1541 1541 1540 1540 1540 1540 1540 1540 1540 1541 1541 1541 1541 1542 1542 1541 1541 1541 1541 1541 1541 1541 1541 1541 1542 1542 1542
1505 1507 1524 1531 1528 1525 1524 1523 1523 1525 1527 1529 1530 1534 1539 1540 1541 1541 1541 1541 1541 1540 1540 1540 1539 1539 1539 1539 1538 1539 1539 1539 1539 1539 1539 1539 1539 1539 1539 1539 1539 1539 1539 1539 1539 1540 1540 1541 1541
1503 1511 1523 1528 1529 1525 1524 1524 1524 1526 1528 1530 1531 1535 1539 1540 1540 1541 1541 1540 1540 1539 1539 1539 1538 1538 1538 1538 1538 1538 1537 1537 1537 1536 1536 1537 1536 1537 1536 1537 1536 1537 1537 1537 1537 1537 1538 1538 1539
1502 1507 1522 1523 1527 1524 1523 1524 1526 1526 1529 1530 1532 1535 1538 1538 1539 1540 1540 1539 1538 1538 1537 1537 1537 1536 1536 1535 1535 1535 1535 1535 1535 1534 1534 1534 1533 1534 1534 1534 1534 1534 1534 1534 1534 1534 1534 1534 1535
1502 1516 1525 1523 1522 1521 1522 1524 1526 1527 1528 1530 1532 1534 1536 1538 1539 1539 1539 1538 1538 1537 1535 1535 1534 1533 1533 1533 1533 1532 1532 1532 1532 1532 1531 1531 1531 1530 1530 1530 1531 1531 1531 1531 1531 1530 1531 1531 1531
1503 1516 1517 1516 1516 1519 1520 1522 1525 1528 1529 1532 1533 1535 1537 1538 1538 1537 1537 1537 1536 1535 1534 1533 1532 1531 1530 1530 1529 1529 1528 1528 1529 1529 1529 1528 1528 1527 1527 1527 1527 1527 1528 1527 1527 1527 1527 1527 1526
1506 1512 1514 1516 1517 1517 1520 1523 1524 1526 1530 1530 1533 1535 1536 1536 1536 1536 1535 1535 1534 1533 1533 1531 1530 1529 1528 1527 1526 1525 1525 1524 1524 1524 1525 1524 1524 1524 1523 1523 1523 1523 1523 1523 1523 1523 1522 1522 1522
1510 1513 1513 1516 1518 1518 1521 1524 1525 1527 1528 1529 1532 1533 1534 1535 1535 1535 1535 1534 1533 1532 1531 1530 1529 1527 1526 1524 1523 1522 1520 1520 1519 1519 1519 1518 1519 1519 1519 1519 1518 1518 1519 1518 1518 1518 1518 1518 1518
1509 1515 1516 1518 1519 1520 1521 1525 1526 1526 1528 1529 1531 1532 1533 1533 1534 1534 1533 1533 1533 1532 1530 1528 1527 1525 1523 1522 1520 1519 1517 1516 1515 1514 1514 1513 1513 1512 1512 1513 1514 1513 1513 1513 1513 1513 1513 1513 1513
1512 1516 1519 1520 1521 1522 1523 1525 1526 1526 1526 1528 1530 1531 1532 1533 1533 1533 1532 1532 1532 1530 1528 1526 1524 1522 1521 1519 1518 1516 1514 1512 1510 1510 1509 1509 1508 1507 1506 1506 1506 1507 1508 1508 1506 1507 1507 1507 1507
1514 1520 1522 1524 1524 1526 1525 1527 1526 1525 1525 1527 1528 1530 1532 1532 1531 1530 1531 1531 1529 1528 1526 1524 1521 1519 1518 1516 1515 1513 1510 1508 1506 1505 1504 1504 1503 1502 1501 1501 1500 1500 1500 1500 1500 1500 1500 1500 1501
1518 1524 1529 1528 1527 1527 1527 1528 1523 1524 1525 1526 1526 1528 1530 1530 1529 1529 1529 1528 1527 1525 1524 1522 1519 1517 1515 1514 1512 1510 1507 1505 1502 1501 1500 1499 1499 1498 1497 1496 1495 1495 1495 1495 1494 1494 1494 1494 1495
1529 1540 1529 1530 1529 1529 1529 1525 1523 1523 1524 1525 1526 1526 1527 1528 1528 1527 1527 1526 1525 1523 1521 1518 1516 1514 1512 1511 1510 1508 1505 1503 1500 1498 1497 1497 1496 1494 1493 1492 1491 1489 1488 1489 1490 1489 1489 1489 1490
1529 1536 1530 1529 1531 1531 1530 1529 1524 1523 1524 1524 1523 1523 1524 1525 1525 1525 1525 1525 1524 1522 1519 1516 1513 1512 1510 1509 1508 1506 1503 1500 1498 1496 1496 1495 1494 1492 1490 1489 1487 1485 1484 1484 1483 1484 1486 1484 1486
1523 1526 1530 1532 1530 1532 1532 1530 1523 1520 1521 1520 1518 1519 1520 1521 1523 1523 1523 1523 1522 1520 1517 1514 1512 1511 1509 1508 1506 1503 1500 1499 1497 1495 1494 1493 1492 1490 1488 1486 1485 1484 1482 1481 1480 1480 1481 1482 1480
1524 1530 1535 1533 1530 1532 1532 1526 1516 1515 1512 1512 1513 1513 1515 1517 1520 1521 1521 1521 1520 1518 1516 1514 1512 1510 1508 1506 1504 1502 1500 1499 1497 1495 1494 1493 1492 1490 1489 1487 1486 1484 1482 1480 1480 1479 1479 1480 1478
1532 1533 1533 1538 1533 1534 1536 1523 1512 1509 1508 1507 1507 1508 1511 1514 1517 1519 1520 1519 1518 1516 1515 1513 1511 1509 1507 1505 1504 1503 1501 1500 1498 1495 1494 1494 1492 1490 1489 1487 1485 1484 1483 1481 1479 1479 1477 1477 1476
1530 1532 1532 1533 1541 1552 1541 1544 1515 1509 1508 1506 1506 1507 1509 1512 1515 1516 1517 1517 1516 1515 1513 1511 1510 1508 1506 1505 1504 1502 1501 1498 1496 1494 1494 1493 1492 1490 1488 1486 1485 1484 1481 1480 1479 1478 1476 1477 1476
1534 1532 1534 1536 1544 1550 1541 1559 1517 1512 1507 1504 1504 1505 1507 1510 1513 1514 1514 1514 1513 1513 1512 1511 1509 1508 1506 1505 1503 1502 1500 1498 1497 1496 1495 1493 1491 1489 1487 1486 1485 1484 1483 1481 1479 1478 1476 1474 1474
1531 1535 1541 1547 1551 1564 1543 1549 1521 1511 1503 1498 1499 1502 1505 1507 1509 1511 1511 1511 1510 1510 1510 1509 1509 1507 1506 1505 1503 1502 1500 1498 1498 1497 1495 1493 1491 1489 1487 1486 1485 1484 1483 1481 1480 1477 1475 1474 1473
1535 1546 1575 1564 1568 1556 1547 1547 1516 1500 1499 1498 1499 1500 1502 1504 1506 1507 1507 1507 1508 1508 1508 1508 1507 1506 1505 1504 1503 1502 1501 1499 1498 1497 1496 1494 1491 1488 1487 1485 1484 1483 1481 1480 1478 1477 1474 1471 1469
1538 1544 1568 1558 1563 1559 1547 1540 1508 1497 1497 1497 1497 1497 1499 1501 1502 1502 1503 1504 1505 1506 1506 1506 1505 1505 1504 1504 1503 1502 1500 1499 1498 1497 1495 1493 1490 1488 1486 1485 1483 1482 1480 1479 1477 1476 1474 1472 1469
1540 1549 1545 1561 1563 1551 1552 1526 1501 1496 1496 1496 1496 1496 1496 1496 1498 1499 1500 1502 1503 1504 1505 1505 1504 1503 1503 1503 1502 1500 1499 1497 1497 1496 1494 1492 1490 1488 1485 1483 1481 1479 1477 1475 1473 1471 1470 1468 1467
1534 1539 1552 1561 1559 1549 1546 1536 1517 1499 1494 1494 1494 1493 1494 1495 1496 1496 1498 1499 1501 1501 1502 1502 1501 1501 1501 1500 1500 1498 1498 1497 1495 1494 1492 1490 1488 1486 1485 1483 1481 1479 1476 1474 1472 1470 1468 1466 1464
1539 1541 1545 1550 1555 1559 1547 1518 1501 1496 1492 1492 1492 1491 1491 1492 1493 1493 1494 1495 1497 1498 1498 1498 1499 1499 1499 1499 1498 1496 1495 1493 1492 1491 1489 1487 1486 1484 1483 1481 1479 1477 1475 1473 1470 1468 1465 1463 1461
1532 1536 1541 1551 1549 1553 1554 1526 1494 1494 1493 1492 1490 1489 1489 1489 1490 1491 1491 1492 1493 1494 1495 1495 1496 1496 1496 1495 1494 1493 1492 1491 1490 1488 1487 1485 1483 1481 1480 1478 1476 1474 1472 1469 1467 1465 1462 1460 1458